Weather in Bartoszyce

Poland     54°15′14″N   20°48′57″E
temp.,
°C
wind,
m/s
gust,
m/s
humid.,
%
clouds,
%
prec.,
mm/h
press.,
hPa
HPBL,
m
28 october, thu
thu2823:00+12wsw71584100 0.0 1019645
02:00+12wsw71485100 0.0 1019618
05:00+12wsw61288100 0.0 1020509
08:00+12wsw51189100 0.0 1021359
11:00+13wsw5980100 0.0 1022400
14:00+16wsw576850 0.0 1022879
17:00+12sw348392 0.0 102256
20:00+10ssw379145 0.0 1022124
29 october, fri
fri2923:00+9ssw499189 0.0 1022152
02:00+8s498750 0.0 1022166
05:00+8s4118328 0.0 1021200
08:00+8s5147812 0.0 1020286
11:00+12s613605 0.0 1019452
14:00+15s510525 0.0 1018522
17:00+11s49635 0.0 1018183
20:00+9s311685 0.0 1018198
30 october, sat
sat3023:00+8s387182 0.0 1018134
02:00+7s49775 0.0 1017141
05:00+7s410790 0.0 1017169
08:00+7s413725 0.0 1017257
11:00+12ssw510525 0.0 1017474
14:00+14s59475 0.0 1016565
17:00+10s34611 0.0 101652
20:00+8s49685 0.0 1017136
31 october, sun
sun3123:00+8sse36683 0.0 101679
02:00+7sse48732 0.0 1015117
04:00+6sse411785 0.0 1013189
07:00+8s61667100 0.0 1013366
10:00+11ssw7136175 0.0 1013510
13:00+14ssw6115472 0.0 1013593
16:00+12s410666 0.0 1013216
19:00+10s512726 0.0 1013231
31 october, sun
sun3122:00+10s411745 0.0 1013211
01:00+9s412725 0.0 1011219
04:00+8sse411755 0.0 1010200
07:00+7sse513787 0.0 1008258
10:00+11sse7126354 0.0 1006369
13:00+13sse8155760 0.0 1004604
16:00+12sse71458100 0.0 1004485
19:00+11s61460100 0.0 1004382